Location: Shenandoah County Park
(38.9356°N, 78.4524°W)
Time: 02:38:55
(UTC-04:00)

Transit 4A - Visible Passes

Search period start: 10 June 2023 00:00
Search period end: 20 June 2023 00:00
Orbit: 863 x 980 km, 66.8° (Epoch: 09 June)

Date Brightness Start Highest point End Pass type
(mag) Time Alt. Az. Time Alt. Az. Time Alt. Az.
10 Jun 9.0 21:54:23 10° NNW 22:00:09 34° NE 22:04:41 15° ESE visible
10 Jun 8.6 23:40:37 10° NW 23:46:36 43° WSW 23:48:11 37° SW visible
11 Jun 8.5 22:03:20 10° NNW 22:09:31 48° NE 22:13:42 20° ESE visible
11 Jun 9.2 23:50:14 10° NW 23:55:35 29° WSW 23:57:13 26° SW visible
12 Jun 8.1 22:12:22 10° NNW 22:18:46 69° ENE 22:22:47 24° SE visible
13 Jun 9.7 00:00:12 10° WNW 00:04:30 19° WSW 00:06:17 17° SW visible
13 Jun 8.0 22:21:32 10° NNW 22:27:58 83° WSW 22:31:54 25° SSE visible
14 Jun 10.2 00:11:12 10° W 00:13:19 12° W 00:15:25 10° WSW visible
14 Jun 8.4 22:30:49 10° NW 22:37:04 56° WSW 22:41:04 23° S visible
15 Jun 9.0 22:40:16 10° NW 22:46:06 38° WSW 22:50:18 18° SSW visible
16 Jun 8.4 21:02:49 10° NNW 21:09:05 54° ENE 21:15:20 10° SE visible
16 Jun 9.6 22:49:58 10° NW 22:55:03 25° WSW 22:59:34 12° SSW visible
17 Jun 8.1 21:11:54 10° NNW 21:18:19 78° ENE 21:24:43 10° SSE visible
17 Jun 10.1 23:00:09 10° WNW 23:03:56 16° WSW 23:07:42 10° SW visible
18 Jun 8.2 21:21:06 10° NNW 21:27:29 73° WSW 21:33:50 10° SSE visible
19 Jun 8.8 21:30:26 10° NW 21:36:34 49° WSW 21:42:40 10° S visible
